Back to catalog

CZ-4 DEB

LostSSO
NORAD 37620·DEBRIS·🇨🇳 China

Launched Sep 3, 1990 from Taiyuan Satellite Launch Center

Loading…

Next Passes (next 24 hours)

TLE

StaleSource: Space-Track

Epoch: Sep 23, 2023, 05:33 UTC

1 37620U 90081DG  23266.23165806  .00003678  00000-0  14326-2 0  9998
2 37620  98.4704 259.7762 0006892  49.8245  13.7597 14.30311697954327

Track CZ-4 DEB in real time with AllMySat

Download on the App Store